Wind_Speed
5 7 7 9 10 10 10 10 9 8 8 8 8 8 7 8 7 6 7 6 5 5 5 6 6 7 6 6 4 6 6 7 6 4 2 1 1 2 3 3 3 1 2
10 9 9 9 9 9 8 7 6 6 6 6 6 7 8 8 9 7 7 7 5 5 4 4 5 6 6 5 4 5 5 6 6 5 4 4 4 4 3 3 2 0 1
11 8 9 8 8 8 8 7 7 7 7 7 7 7 7 8 8 8 9 8 6 5 4 4 5 5 5 6 6 5 6 5 7 7 6 5 5 5 4 4 4 3 3
12 10 9 7 7 7 7 6 7 6 7 7 7 7 8 8 8 8 8 7 6 6 6 6 6 6 6 6 5 5 5 6 6 7 6 7 6 5 5 6 7 8 6
13 10 8 6 6 6 6 6 7 7 8 8 8 8 8 9 10 10 8 7 7 6 6 6 7 7 6 6 6 6 6 7 6 5 6 7 7 6 6 7 9 11 10
13 10 7 5 5 5 6 7 8 9 9 9 10 9 10 11 11 10 8 8 7 7 7 8 8 8 8 8 7 7 7 8 8 7 7 7 7 8 8 9 9 7 9
12 9 7 6 5 6 7 9 10 10 10 10 10 11 11 11 11 11 10 9 9 8 8 8 8 8 9 8 8 8 9 8 8 8 8 9 9 8 8 9 9 10 10
10 8 6 5 6 6 7 7 8 9 9 9 9 10 10 10 11 10 11 11 11 10 8 7 7 8 8 8 8 8 8 8 9 9 10 10 10 10 9 9 10 9 9
8 6 6 6 6 6 7 8 8 8 8 8 9 9 10 10 9 9 8 8 8 8 7 7 7 7 7 7 7 7 7 7 7 7 8 8 9 10 9 10 10 9 10
7 6 6 6 6 7 8 8 7 7 7 7 8 9 10 10 9 9 8 8 7 7 8 8 8 8 8 8 8 8 7 7 6 5 5 5 5 6 7 7 7 10 11
7 6 5 5 7 7 7 7 7 6 6 7 8 9 9 10 9 9 8 8 9 9 9 9 10 10 10 10 10 10 10 10 9 8 7 6 5 6 6 6 6 6 7
6 4 4 5 6 7 8 8 7 7 7 8 9 9 10 10 10 9 9 10 10 10 10 10 10 10 10 10 10 10 10 10 10 10 10 10 9 7 7 7 8 8 8
7 4 3 4 5 6 7 7 6 7 8 9 9 10 10 10 10 9 10 11 12 13 13 12 12 12 11 11 10 10 9 9 9 8 8 9 9 10 9 8 8 8 7
8 5 3 3 3 5 6 5 5 6 8 8 9 10 10 10 10 11 12 12 12 14 14 15 15 14 12 11 11 10 8 8 7 6 6 5 5 6 5 5 6 7 8
9 6 3 1 2 4 5 5 4 5 6 7 9 10 10 10 10 11 11 12 13 14 14 15 14 14 13 12 11 9 8 7 5 3 2 2 2 7 7 7 7 7 8
9 7 4 1 1 3 5 4 3 3 4 6 8 9 9 10 10 10 10 11 12 13 14 14 14 14 13 14 13 7 5 5 5 4 4 5 5 7 11 10 10 10 9
10 8 5 2 2 4 4 4 3 2 3 4 7 8 9 9 10 10 10 11 13 13 14 15 15 15 14 14 12 7 4 5 5 6 6 6 6 5 6 9 11 12 11
12 10 6 4 2 3 4 4 3 3 2 3 5 7 8 9 9 9 10 12 13 14 15 15 16 16 15 17 11 6 3 3 4 5 5 6 6 6 6 6 7 8 10
12 10 7 4 3 4 5 5 4 3 3 3 4 5 7 8 9 9 10 11 13 14 15 17 17 16 15 19 10 5 3 3 4 5 5 6 6 6 7 7 7 7 8
12 10 7 5 5 5 6 6 5 4 4 4 5 5 6 7 8 9 9 11 12 13 13 15 15 14 11 18 7 4 2 3 3 4 4 5 6 6 6 6 6 7 7
12 11 8 6 6 7 7 6 5 4 5 5 6 6 6 7 8 9 10 10 11 11 13 14 14 13 11 17 7 3 3 3 2 0 1 2 4 5 6 7 7 8 9
12 10 7 6 7 8 8 7 6 6 6 8 7 7 7 8 8 9 10 10 10 10 11 12 13 12 8 12 7 3 2 2 4 7 4 2 5 7 6 7 7 7 9
10 8 6 7 8 8 8 9 10 10 9 9 7 7 6 8 9 10 11 11 11 12 11 11 11 10 7 6 8 2 2 2 6 2 4 6 6 10 11 6 7 7 7
5 3 6 7 8 8 10 12 12 12 12 11 10 11 11 11 11 12 12 13 13 13 12 12 11 9 8 6 4 1 3 3 2 3 3 6 7 12 10 8 9 5 5
1 2 5 7 10 10 12 14 14 16 16 16 14 14 13 13 13 13 13 14 15 15 15 14 13 12 10 9 7 4 4 4 7 6 4 4 10 8 12 11 8 4 5
5 5 6 8 8 8 9 12 15 17 18 18 16 14 14 14 14 14 14 15 16 17 17 17 16 15 14 13 12 11 9 6 4 6 5 5 9 6 10 12 6 6 4
Wind_Direction
110 95 104 87 82 78 74 71 63 57 49 44 37 35 28 15 14 5 355 354 2 9 13 11 10 9 5 16 352 353 1 7 7 358 314 325 310 341 353 359 18 67 33
123 104 93 90 81 76 69 66 59 47 38 35 36 29 25 18 13 5 355 349 336 333 339 355 357 354 348 345 342 340 336 342 345 342 323 289 267 279 306 315 336 333 336
127 119 95 91 84 75 65 54 46 36 27 22 21 17 10 7 7 8 14 16 10 357 360 340 335 332 328 324 331 334 327 319 313 313 322 310 293 277 274 283 277 266 271
124 112 99 92 79 67 55 44 34 23 10 3 0 357 358 353 350 350 351 351 354 357 348 342 338 337 334 329 326 322 325 318 309 295 297 312 305 289 277 276 278 278 253
120 112 102 92 77 60 41 30 21 16 5 0 358 349 340 343 356 356 341 337 335 332 329 331 331 329 327 325 322 319 312 303 305 298 281 292 298 297 283 286 301 301 241
121 113 103 85 62 41 31 27 31 30 28 26 21 17 13 14 17 16 354 338 334 334 338 337 331 325 318 313 310 306 301 302 299 295 288 288 288 293 294 292 290 303 254
124 120 100 76 58 39 36 38 43 41 38 34 30 25 22 22 22 15 16 9 357 343 337 339 342 332 323 318 310 301 299 299 297 292 288 286 288 291 296 294 289 284 277
123 114 93 72 54 42 30 30 33 40 39 32 27 19 17 18 26 22 29 26 26 24 19 15 352 346 344 335 324 320 319 313 303 293 290 287 285 287 292 291 290 278 273
126 114 92 71 55 42 36 37 33 31 33 29 24 19 19 15 16 13 13 11 15 11 9 3 352 348 346 347 344 339 333 330 328 314 300 296 293 294 295 291 282 280 277
123 103 85 71 55 43 38 36 34 27 24 25 22 18 15 13 13 12 8 4 356 350 343 339 334 329 326 323 319 316 316 315 317 323 324 318 318 335 329 306 301 292 280
124 105 86 67 51 43 40 39 31 27 23 21 18 16 14 16 13 10 6 357 346 339 332 327 323 320 317 312 309 305 302 298 295 294 296 297 301 327 333 330 320 324 311
146 119 90 64 49 41 39 35 33 30 25 23 18 17 18 17 14 11 7 2 355 348 344 340 336 332 329 329 324 319 319 313 308 301 293 286 284 301 318 320 321 322 320
170 155 109 66 47 40 39 34 33 32 28 25 25 26 24 17 14 14 14 14 14 13 13 9 4 359 352 346 339 333 325 322 319 317 312 304 297 296 309 316 322 327 334
181 167 133 62 40 32 32 33 35 34 32 37 34 26 22 21 22 20 19 18 15 13 10 11 10 6 3 358 351 345 337 332 323 319 328 332 353 10 13 10 1 348 336
189 181 175 94 32 24 20 23 26 32 36 36 29 23 22 22 23 21 12 12 12 8 7 5 3 1 360 359 350 344 349 353 351 356 47 346 19 50 41 30 15 6 357
196 196 200 197 356 5 6 5 20 27 29 29 24 23 21 18 15 15 10 9 12 8 7 358 356 353 354 354 348 346 2 21 37 58 65 47 48 49 45 38 32 27 21
208 204 206 213 309 341 350 342 349 346 4 16 20 20 14 11 11 11 8 6 8 4 4 359 357 356 356 356 356 5 34 52 69 69 70 66 48 28 29 46 42 38 31
208 201 200 219 276 317 326 315 312 305 315 346 12 12 5 2 3 5 6 6 7 7 5 4 0 360 1 360 3 20 64 108 95 83 69 65 58 49 37 29 25 36 37
203 199 201 222 267 297 310 307 298 301 294 306 334 0 357 352 355 358 2 4 6 7 5 6 7 3 360 360 6 10 60 100 95 79 69 59 49 44 41 32 25 22 28
198 199 203 232 265 287 292 295 295 296 280 285 301 328 342 339 343 347 354 359 1 4 3 6 6 7 4 360 12 44 92 134 114 83 70 54 41 31 24 18 17 20 14
193 197 208 235 262 274 278 286 289 281 287 285 300 310 320 319 322 331 340 350 353 354 356 357 0 3 5 5 0 9 201 166 160 317 32 44 22 8 357 355 0 1 1
190 194 213 246 267 275 270 281 280 289 291 295 302 305 307 303 303 315 323 330 335 340 346 350 357 0 354 8 2 327 337 246 260 254 251 299 5 357 345 339 341 344 348
180 196 234 269 282 272 271 274 278 286 288 292 301 306 306 303 298 301 310 314 320 324 330 335 341 348 349 348 5 16 326 334 323 272 237 258 292 338 326 322 322 323 342
176 232 277 287 288 280 271 268 271 275 280 287 293 295 299 300 298 295 301 301 301 303 308 313 316 320 325 325 348 291 273 242 297 311 255 253 264 313 307 288 307 295 334
168 307 309 303 293 282 272 270 269 271 278 283 287 292 299 300 296 293 293 293 292 291 293 292 291 292 289 283 272 270 258 239 229 233 282 279 298 291 305 311 287 265 331
88 49 9 344 331 308 284 276 273 274 278 278 282 291 301 304 296 291 290 288 286 285 287 286 283 281 280 277 274 267 252 248 223 227 256 297 303 300 301 299 237 252 300
Height
843 844 844 844 844 844 844 844 844 844 844 844 844 843 842 842 842 840 840 839 838 838 837 837 836 835 834 834 833 832 832 831 831 830 830 830 830 830 830 829 829 829 829
843 844 844 844 844 844 844 844 844 844 844 844 843 843 842 842 841 840 840 839 838 838 837 837 836 835 834 833 833 832 832 831 831 830 829 829 829 829 829 829 829 829 828
843 845 845 845 845 845 845 845 845 845 845 844 843 842 842 842 841 840 840 839 838 837 837 836 836 835 834 833 832 832 832 831 830 830 829 828 828 828 828 828 829 829 829
844 845 846 846 846 846 846 846 846 845 845 844 843 842 841 841 841 840 839 839 838 837 837 836 835 834 833 833 832 831 831 830 830 829 829 828 827 827 827 828 828 828 827
845 846 847 847 847 846 846 846 846 845 845 844 843 842 841 840 840 839 839 838 837 837 836 835 834 833 833 832 832 831 830 829 829 828 828 827 826 826 826 826 826 825 826
846 846 847 847 847 847 846 846 846 845 845 844 843 842 840 840 839 838 838 837 837 836 836 835 834 833 832 831 830 829 829 828 827 827 826 826 826 825 825 825 824 825 825
845 846 847 847 847 847 847 847 846 846 845 844 843 842 841 840 839 838 837 837 836 835 835 834 833 832 830 830 828 827 827 826 826 825 825 824 824 823 824 823 823 823 823
846 847 847 848 847 847 847 846 846 846 845 843 842 842 841 840 839 838 838 837 836 835 834 833 832 830 829 828 827 826 825 824 824 823 823 822 822 821 822 821 821 820 820
846 847 848 847 847 847 846 846 846 845 844 843 842 841 840 840 839 838 837 836 836 834 833 832 831 830 829 827 827 825 824 823 822 822 821 820 820 820 820 819 818 818 818
847 848 848 848 847 847 846 846 845 845 844 843 842 841 840 839 838 837 837 836 835 834 833 831 830 829 828 826 825 824 823 822 821 821 820 819 818 818 818 817 816 815 815
848 848 848 848 847 847 846 846 846 845 845 843 842 841 840 839 838 837 836 836 835 833 832 830 828 827 826 825 823 822 821 820 820 819 819 818 817 817 816 816 815 814 813
848 848 848 848 848 847 847 846 846 846 845 843 843 841 839 839 837 836 836 835 834 832 831 829 827 825 824 823 821 820 819 819 818 817 817 816 815 815 815 815 814 813 812
847 848 848 848 848 847 846 846 846 846 845 844 843 841 840 839 838 837 835 834 833 832 830 828 826 825 823 822 820 819 818 817 816 816 815 814 813 813 813 814 813 812 811
847 847 848 848 848 847 846 846 846 846 845 844 843 842 841 840 838 838 836 834 832 831 830 828 827 825 823 821 820 818 817 815 815 814 813 812 812 812 812 812 811 810 809
845 847 847 848 847 847 846 845 846 846 845 844 843 842 841 841 839 838 837 835 833 832 830 828 826 824 822 820 818 817 816 814 814 813 812 811 810 811 810 810 809 808 807
844 846 847 847 847 846 846 846 846 845 845 844 843 842 842 841 840 838 837 836 833 832 829 828 826 824 821 819 818 815 814 814 813 813 812 811 810 810 810 809 808 807 806
842 845 846 846 846 846 845 846 845 845 844 844 843 843 842 842 841 839 838 836 834 832 830 829 827 824 822 820 817 815 814 814 814 813 812 811 810 809 808 808 807 806 805
841 843 845 845 846 846 845 845 845 845 844 844 843 842 842 842 841 839 838 836 834 832 830 828 826 824 821 819 816 815 814 813 813 813 812 811 810 809 808 807 805 804 803
839 842 843 844 845 845 845 845 845 844 843 843 842 841 841 841 840 839 837 835 833 832 830 828 826 824 821 819 817 815 815 814 814 814 813 812 811 810 809 807 805 803 801
838 841 842 843 844 844 844 844 843 842 842 841 841 840 839 839 840 838 836 834 833 831 830 828 826 824 821 819 816 815 815 814 814 814 813 813 812 811 809 808 806 804 801
836 839 840 842 843 843 843 842 841 840 840 840 839 839 837 838 838 837 836 833 832 830 829 827 825 823 821 819 817 815 813 813 813 813 813 812 811 810 809 808 806 804 802
834 837 839 840 841 840 840 840 840 839 838 838 837 836 836 836 836 835 834 832 831 830 829 827 825 823 822 821 821 818 814 814 812 811 811 811 810 809 808 806 805 803 801
834 836 838 838 838 838 838 838 838 837 836 835 835 834 834 833 833 833 832 832 831 830 828 827 825 823 822 821 820 821 816 814 815 810 810 810 809 808 806 804 803 801 799
834 835 836 836 835 836 836 835 835 834 834 833 832 831 831 831 831 831 830 829 829 828 826 825 823 822 821 821 820 819 819 819 817 811 809 806 805 804 802 801 800 799 797
833 834 834 834 833 833 833 832 831 830 830 830 829 828 828 828 828 828 827 827 826 825 823 821 821 819 818 818 817 817 816 816 815 814 807 804 803 801 800 799 798 797 796
833 833 832 831 830 829 829 829 828 826 826 826 826 825 825 824 824 824 823 823 822 821 819 819 818 817 816 816 815 815 815 814 813 813 811 806 804 799 799 796 795 795 794